Location: Taipo
(41.0000°S, 175.9500°E)
Time: 02:46:42
(UTC+00:00)

Cosmos 1470 Rocket - Pass Details

Date: 18 April 2024
Orbit: 601 x 629 km, 82.5° (Epoch: 22 May)

Event Time Altitude Azimuth Distance (km) Brightness Sun altitude
Exits shadow 17:24:22 26° 304° (WNW) 1,265 4.7 -16.9°
Maximum altitude 17:26:13 37° 257° (WSW) 995 4.1 -16.6°
Drops below altitude 10° 17:30:25 10° 189° (S) 2,037 6.1 -15.8°
Sets 17:32:49 0° 180° (S) 2,950 7.0 -15.3°
